Regional Weather Roundup
Issued by NWS Jackson, KY

Home | Current Version | Previous Version | Graphics & Text | Print | Product List | Glossary On
Versions: 1 2 3 4 5 6 7 8 9 10 11 12 13 14 15 16 17 18 19 20 21 22 23 24 25 26 27
000
ASUS43 KJKL 231310
RWRJKL

EAST KENTUCKY HOURLY WEATHER ROUNDUP
NATIONAL WEATHER SERVICE JACKSON KY
900 AM EDT TUE AUG 23 2016

NOTE: "FAIR" INDICATES FEW OR NO CLOUDS BELOW 12,000 FEET WITH
NO SIGNIFICANT WEATHER AND/OR OBSTRUCTIONS TO VISIBILITY.

* THESE REPORTS ARE NOT UNDER NWS QUALITY CONTROL AND MAY NOT
  REPORT WEATHER SUCH AS PRECIPITATION AND FOG.

KYZ079-080-083-085-087-088-110-112-115-119-120-231400
...EASTERN KENTUCKY...

CITY           SKY/WX    TMP DP  RH WIND       PRES   REMARKS
JACKSON        SUNNY     64  58  80 CALM      30.31R
LONDON         SUNNY     64  59  83 CALM      30.30R
SOMERSET*      SUNNY     63  63 100 CALM      30.30S
MONTICELLO*    SUNNY    N/A N/A N/A VRB6      30.31R
WILLIAMSBURG*  MOSUNNY   61  61 100 S3        30.30S
MIDDLESBORO*   CLOUDY    59  59 100 CALM      30.33R
HARLAN APT*    CLOUDY    59  55  88 CALM      30.33S
PIKE CO APT*   PTSUNNY   60  60 100 CALM      30.32R
BIG SANDY APT* SUNNY     63  61  93 CALM      30.32R
MOREHEAD APT*  SUNNY     68  59  73 CALM      30.32S
$$

KYZ035-036-041-042-044-050-067-078-099-231400
...CENTRAL KENTUCKY...

CITY           SKY/WX    TMP DP  RH WIND       PRES   REMARKS
MT STERLING*   SUNNY     68  61  77 CALM      30.32S
FLEMING/MASON* SUNNY     64  60  87 CALM      30.32S
DANVILLE*      SUNNY     64  59  82 CALM      30.30S
LEXINGTON      SUNNY     69  59  70 SE7       30.29S
FRANKFORT      SUNNY     66  60  81 CALM      30.28R
LOUISVILLE     MOSUNNY   68  60  75 SE3       30.27R
LEBANON*         N/A     68  61  77 CALM      30.29R
GLASGOW*       SUNNY     64  64 100 CALM      30.27R
BOWLING GREEN  SUNNY     66  62  87 CALM      30.27R
$$

KYZ091>093-OHZ055-061-077-WVZ005-015-034-035-042-231400
...SOUTHERN OHIO/WEST VIRGINIA...

CITY           SKY/WX    TMP DP  RH WIND       PRES   REMARKS
COVINGTON      MOSUNNY   68  60  75 SE3       30.30R
COLUMBUS       MOSUNNY   66  56  70 SE3       30.31R
DAYTON         MOSUNNY   66  57  72 SE7       30.31R
WILMINGTON     SUNNY     65  60  84 CALM      30.31R
HUNTINGTON     SUNNY     63  60  90 CALM      30.31R
CHARLESTON     MOSUNNY   63  57  81 CALM      30.32S
PINEVILLE*     SUNNY     59  56  91 MISG      30.39S
BECKLEY        SUNNY     63  55  75 SE3       30.37R
BLUEFIELD      SUNNY     62  56  80 VRB3      30.38S
LOGAN CO APT*    N/A     66  59  77 CALM      30.31S
$$

VAZ002-007-008-TNZ017-027-036-066-071-231400
...SOUTHWEST VIRGINIA/EAST TENNESSEE...

CITY           SKY/WX    TMP DP  RH WIND       PRES   REMARKS
WISE*          SUNNY     66  52  59 CALM      30.37R
JONESVILLE*      N/A     63  57  82 CALM      30.34R
ABINGDON*      SUNNY     68  59  71 E9        30.34S
BRISTOL        MOSUNNY   64  59  83 E3        30.32R
MORRISTOWN*    SUNNY     68  61  77 E6        30.30R
SEVIERVILLE*   SUNNY     64  61  88 CALM      30.29R
KNOXVILLE      MOSUNNY   68  62  81 N8        30.28R
OAK RIDGE      SUNNY     69  62  78 CALM      30.30R
CROSSVILLE     SUNNY     66  60  81 E3        30.31R
NASHVILLE      CLOUDY    68  65  90 CALM      30.27R FOG
$$

...KEY TO REMARKS...
VSB - VISIBILITY IN MILES
WCI - WIND CHILL INDEX
HX  - HEAT INDEX

$$




USA.gov is the U.S. government's official web portal to all federal, state and local government web resources and services.